Regional Weather Roundup
Issued by NWS

Home | Current Version | Previous Version | Graphics & Text | Print | Product List | Glossary On
Versions: 1 2 3 4 5 6 7 8 9 10 11 12 13 14 15 16 17 18 19 20 21 22 23 24 25 26 27 28 29 30 31 32 33 34 35 36 37 38 39 40 41 42 43 44 45 46 47 48 49 50
423
ASUS43 KLOT 231907
RWRIL

ILLINOIS REGIONAL WEATHER ROUNDUP
NATIONAL WEATHER SERVICE CHICAGO/ROMEOVILLE IL
200 PM CDT THU MAR 23 2017

NOTE: "FAIR" INDICATES FEW OR NO CLOUDS BELOW 12,000 FEET WITH NO
SIGNIFICANT WEATHER AND/OR OBSTRUCTIONS TO VISIBILITY.

* THESE STATIONS ARE NOT UNDER NWS QUALITY CONTROL. THEY ALSO MAY NOT
  REPORT WEATHER SUCH AS PRECIPITATION OR FOG.

ILZ001-002-007-009-015-016-024-232000-
NORTHWEST ILLINOIS

CITY           SKY/WX    TMP DP  RH WIND       PRES   REMARKS
MOLINE         CLOUDY    43  29  57 SE16G22   30.16F
STERLING*      CLOUDY    41  26  55 SE12G17   30.21F
SAVANNA*       CLOUDY    41  26  53 S21       30.19F
$$

ILZ003-004-008-010-011-017-018-232000-
NORTH CENTRAL ILLINOIS

CITY           SKY/WX    TMP DP  RH WIND       PRES   REMARKS
ROCKFORD       CLOUDY    45  23  42 S17G26    30.23F
FREEPORT*      CLOUDY    42  22  45 S17       30.21F
ROCHELLE*      CLOUDY    42  26  52 S18       30.23F
DE KALB*       CLOUDY    43  24  47 SE21      30.23F
PERU*          CLOUDY    40  26  56 S13G24    30.23F
$$

ILZ005-006-012>014-019>023-232000-
NORTHEAST ILLINOIS

CITY           SKY/WX    TMP DP  RH WIND       PRES   REMARKS
CHICAGO-OHARE  CLOUDY    48  21  34 S18G25    30.23F
CHICAGO-MIDWAY CLOUDY    47  22  37 SE18G25   30.25F
AURORA         CLOUDY    45  24  43 SE15      30.23F
LANSING*       CLOUDY    45  28  50 S16       30.27F
JOLIET*        CLOUDY    47  25  43 S14G21    30.25F
WAUKEGAN       PTSUNNY   39  24  55 SE17G25   30.24F WCI  30
DUPAGE AIRPORT CLOUDY    46  23  40 S18G25    30.23F
KANKAKEE*      CLOUDY    49  27  41 SE12G17   30.26F
WHEELING       PTSUNNY   46  21  37 S18       30.25F
MORRIS*        CLOUDY    45  26  46 S14       30.23F
ROMEOVILLE*    CLOUDY    45  31  56 S15       30.24F
NORTHERLY ISL    N/A     40  27  60 E12         N/A
$$

LMZ740>746-232000-
SOUTHERN LAKE MICHIGAN

STATION/POSITION SKY/WX   TEMP    WIND        PRES    VSBY  WAVE
                          AIR SEA DIR/SP/G                  HT/PER
                          (F)     (DEG/KT/KT) (MB)    (MI)  (FT/S)
HARRISON CRIB              38     130/ 18/ 19   N/A
BURNHAM HARBOR             40     110/ 11/ 14   N/A
CALUMET HARBOR             44     130/ 13/ 19 1024.5F
BURNS HARBOR               44     140/ 15/ 21 1026.1F
MICHIGAN CITY              41     130/ 19/ 23   N/A
$$

ILZ025>027-034>036-040-047-049-050-058-095>099-232000-
WEST-CENTRAL ILLINOIS

CITY           SKY/WX    TMP DP  RH WIND       PRES   REMARKS
QUINCY         PTSUNNY   46  40  79 SE17G25   30.11F
GALESBURG*     CLOUDY    39  34  84 SE9G16    30.15F WCI  32
MACOMB*        LGT RAIN  38  37  94 SE18G24   30.18F WCI  29
JACKSONVILLE*  CLOUDY    40  38  91 SE16G22   30.18F
PITTSFIELD*    CLOUDY    45  39  82 SE16G22   30.15F
$$

ILZ028>032-037-038-041>044-048-051>054-059>061-232000-
CENTRAL ILLINOIS

CITY           SKY/WX    TMP DP  RH WIND       PRES   REMARKS
PONTIAC        CLOUDY    45  29  53 SE14      30.25F
BLOOMINGTON    LGT RAIN  44  25  47 S16       30.23F
DECATUR        CLOUDY    43  29  57 S14       30.24F
PEORIA         CLOUDY    41  31  67 SE10      30.21F
LACON*         CLOUDY    43  28  55 S10       30.21F
LINCOLN*       LGT RAIN  41  35  78 SE12G18   30.22F
SPRINGFIELD    LGT RAIN  41  36  82 SE16      30.22F
TAYLORVILLE    CLOUDY    38  35  89 SE12      30.23F WCI  31
$$

ILZ033-039-045-046-055>057-062-063-232000-
EAST-CENTRAL ILLINOIS

CITY           SKY/WX    TMP DP  RH WIND       PRES   REMARKS
CHAMPAIGN      CLOUDY    48  23  37 S15       30.25F
RANTOUL*       CLOUDY    48  28  45 SE15      30.25F
MATTOON        CLOUDY    45  30  55 SE14      30.24F
PARIS*         CLOUDY    46  28  48 SE13      30.28F
$$

ILZ079-100>102-232000-
SOUTHWEST ILLINOIS

CITY           SKY/WX    TMP DP  RH WIND       PRES   REMARKS
ALTON          CLOUDY    43  37  81 SE16      30.19F
CAHOKIA*       CLOUDY    48  39  71 SE14G22   30.19F
SPARTA*        MOSUNNY   47  41  77 SE14      30.23F
$$

ILZ064>066-069>071-074>076-080>082-084>086-088>090-092>094-232000-
SOUTH-CENTRAL ILLINOIS

CITY           SKY/WX    TMP DP  RH WIND       PRES   REMARKS
CARBONDALE     CLOUDY    48  43  82 SE10      30.24F
CAIRO*         SUNNY     59  37  43 SE7       30.24F
EFFINGHAM*     DRIZZLE   41  36  82 E12       30.26F
MARION         PTSUNNY   50  46  87 E12       30.27F
MT. VERNON     CLOUDY    43  39  86 E10       30.26F
CENTRALIA*     CLOUDY    40  38  91 E8        30.24F
SALEM*         CLOUDY    39  36  88 SE6       30.26F WCI  35
METROPOLIS*    CLOUDY    52  41  67 E7        30.27F
$$

ILZ067-068-072-073-078-083-087-091-232000-
SOUTHEAST ILLINOIS

CITY           SKY/WX    TMP DP  RH WIND       PRES   REMARKS
LAWRENCEVILLE  PTSUNNY   45  28  51 S9        30.31F
FLORA*         CLOUDY    40  37  86 SE10      30.28F
FAIRFIELD*     CLOUDY    39  35  86 E7        30.27F WCI  34
HARRISBURG*    PTSUNNY   45  42  88 E10       30.28F
ROBINSON*      CLOUDY    45  28  50 SE9       30.31F
CARMI*         CLOUDY    42  37  84 E13       30.29F
$$

ABBREVIATIONS USED IN REMARKS
   TC - TEMPERATURE IN CELSIUS
  WCI - WIND CHILL INDEX
   HX - HEAT INDEX
  VSB - VISIBILITY
$$





USA.gov is the U.S. government's official web portal to all federal, state and local government web resources and services.